Location: Artiguedieu
(43.5000°N, 0.5454°E)
Time: 18:09:35
(UTC+00:00)

Altair - Visible Passes

Search period start: 28 July 2021 00:00
Search period end: 07 August 2021 00:00
Orbit: 1501 x 1682 km, 47.2° (Epoch: 28 July)

Date Brightness Start Highest point End Pass type
(mag) Time Alt. Az. Time Alt. Az. Time Alt. Az.
28 Jul 8.0 01:38:52 33° S 01:41:49 40° SE 01:50:10 10° ENE visible
28 Jul 7.5 03:36:52 11° WSW 03:45:54 90° WNW 03:55:08 10° ENE visible
29 Jul 8.0 01:14:50 34° SSE 01:16:44 37° SE 01:24:56 10° ENE visible
29 Jul 7.4 03:12:51 16° WSW 03:20:44 87° SSE 03:29:58 10° ENE visible
30 Jul 8.1 00:50:47 34° SE 00:51:40 35° SE 00:59:41 10° ENE visible
30 Jul 7.4 02:48:46 21° WSW 02:55:34 84° SSE 03:04:47 10° ENE visible
31 Jul 8.2 00:26:40 32° SE 00:26:40 32° SE 00:34:24 10° ENE visible
31 Jul 7.4 02:24:40 27° SW 02:30:24 80° SSE 02:39:37 10° ENE visible
01 Aug 8.3 00:02:32 29° ESE 00:02:32 29° ESE 00:09:07 10° ENE visible
01 Aug 7.4 02:00:31 34° SW 02:05:15 76° SSE 02:14:27 10° ENE visible
01 Aug 7.7 04:00:54 10° W 04:10:13 71° N 04:19:24 10° E visible
01 Aug 8.5 23:38:21 25° ESE 23:38:21 25° ESE 23:43:48 10° ENE visible
02 Aug 7.4 01:36:20 41° SW 01:40:06 73° SSE 01:49:17 10° ENE visible
02 Aug 7.7 03:35:39 10° W 03:45:00 72° N 03:54:11 10° ENE visible
02 Aug 8.7 23:14:07 21° ESE 23:14:07 21° ESE 23:18:26 10° E visible
03 Aug 7.4 01:12:06 48° SSW 01:14:58 69° SSE 01:24:06 10° ENE visible
03 Aug 7.6 03:10:24 10° W 03:19:47 73° N 03:28:59 10° ENE visible
03 Aug 8.8 22:49:50 18° E 22:49:50 18° E 22:53:02 10° E visible
04 Aug 7.4 00:47:48 54° SSW 00:49:49 65° SSE 00:58:56 10° ENE visible
04 Aug 7.6 02:45:47 12° W 02:54:34 75° N 03:03:48 10° ENE visible
04 Aug 9.0 22:25:29 15° E 22:25:29 15° E 22:27:35 10° E visible
05 Aug 7.4 00:23:27 57° S 00:24:41 61° SE 00:33:45 10° ENE visible
05 Aug 7.5 02:21:25 16° W 02:29:22 76° NNW 02:38:36 10° ENE visible
05 Aug 9.1 22:01:04 12° E 22:01:04 12° E 22:02:04 10° E visible
05 Aug 7.4 23:59:02 57° SSE 23:59:34 58° SE 00:08:36 10° ENE visible
06 Aug 7.5 01:57:00 20° W 02:04:09 78° NNW 02:13:25 10° ENE visible
06 Aug 7.7 04:00:08 10° WNW 04:09:29 75° N 04:18:41 10° E visible
06 Aug 7.5 23:34:30 54° SE 23:34:30 54° SE 23:43:25 10° ENE visible
